"Pseudo-MPEC" for ZTF10FU

Created 2026 Aug 19 5:35:15 UT using Find_Orb

Click here for an explanation of pseudo-MPECs

 
 Astrometry: 
     ZTF10FU*0C2026 08 18.38269401 50 48.506+21 13 21.18   ~8IDo 19.18RUNEOCPI41
     ZTF10FU 0C2026 08 18.38304201 50 47.948+21 13 28.54   ~8IDo 19.18RUNEOCPI41
     ZTF10FU 0C2026 08 18.42985501 49 27.816+21 30 36.56   ~8IJK 18.51iUNEOCPI41
     ZTF10FU 0C2026 08 18.43020201 49 27.016+21 30 44.69   ~8IJKx18.51iUNEOCPI41
     ZTF10FU 0C2026 08 18.45562401 48 43.547+21 39 58.40   ~8IDo 19.69gUNEOCPI41
     ZTF10FU 0C2026 08 18.45597101 48 42.887+21 40 05.70   ~8IDo 19.69gUNEOCPI41
     ZTF10FU KB2026 08 18.93083501 35 57.96 +24 22 00.1    ~8IMo 18.6 GXNEOCPI93
     ZTF10FU KB2026 08 18.93285901 35 54.68 +24 22 40.5    ~8IMo 18.5 GXNEOCPI93
     ZTF10FU KB2026 08 18.93483401 35 51.51 +24 23 20.0    ~8IMo 18.4 GXNEOCPI93
     ZTF10FU KC2026 08 18.93905301 35 43.92 +24 24 54.7    ~8IN5 18.2 GXNEOCPL01
     ZTF10FU KC2026 08 18.94005801 35 42.23 +24 25 15.2    ~8IN5 18.6 GXNEOCPL01
     ZTF10FU KC2026 08 18.94099401 35 40.76 +24 25 32.8    ~8IN5 18.5 GXNEOCPL01
     ZTF10FU KC2026 08 18.94193101 35 39.21 +24 25 52.1    ~8IN5 19.1 GXNEOCPL01
     ZTF10FU KC2026 08 18.94286701 35 37.68 +24 26 10.5    ~8IN5       XNEOCPL01

Station data:
(I41) Palomar Mountain--ZTF  (N33.357336 W116.859780)  US/California.
   Observers B. T. Bolin, Z. T. F. Collaboration. Measurers B. T. Bolin,
   Z.-Y. Lin, F. J. Masci. 1.2-m f/2.4 Schmidt.
(I93) St Pardon de Conques  (N44.558670 W0.202960)  France.  Observers F.
   Losse, W. D'Anna. Measurer F. Losse. 0.40-m f/3.7 reflector + CCD.
(L01) Višnjan Observatory, Tičan  (N45.290897 E13.749300)  Croatia.
   Observers K. Korlević, L. Poropat. Measurer K. Korlevic. 1.0-m f/2.9
   reflector + CCD.

Orbital elements:  ZTF10FU
   Perihelion 2026 Jul 8.456930 +/- 0.548 TT = 10:57:58.7 (JD 2461229.956930)
Epoch 2026 Aug 19.0 TT = JDT 2461271.5   Earth MOID: 0.0117   Ma: 0.0732
M  22.487803919 +/- 0.8             (J2000 ecliptic)             AutoNEOCP
n   0.541312998 +/- 0.0129          Peri.  312.208619 +/- 0.49
a   1.491089615 +/- 0.0236          Node   326.413942 +/- 0.026
e   0.37344382 +/- 0.00988          Incl.   21.429147 +/- 0.21
P   1.821/665.037d         H 23.28  G  0.15   U  9.8
q 0.934251408 +/- 0.0004    Q 2.047927822 +/- 0.0472
13 of 14 observations 2026 Aug. 18 (13.4 hr); mean residual 0".35
Residuals in arcseconds: 
260818 I41  .37-  .30+    260818 I41  .68-  .16+    260818 L01  .44-  .47+    
260818 I41  .14+  .03-    260818 I93  .14+  .06+    260818 L01  .28+  .57-    
260818 I41  .69+  .82-    260818 I93  .13-  .02+    260818 L01  .07-  .07+    
260818 I41( 2.2-  .27-)   260818 I93  .04+  .08+    260818 L01  .16-  .16-    
260818 I41  .21+  .38+    260818 L01  .32+  .01-    

Ephemerides (geocentric):
Date (UTC) HH   RA             Dec           delta  r     elong  mag " sig PA
---- --------  ------------   ------------  ------ ------ -----  --- --------
2026 08 19 06  01 27 22.798   +26 04 44.53  .05002 1.0341 114.9 19.1 6.67 131
2026 08 19 07  01 26 17.596   +26 17 24.68  .05019 1.0343 115.0 19.1 7.51 131
2026 08 19 08  01 25 12.592   +26 29 57.81  .05036 1.0345 115.2 19.1 8.41 131
2026 08 19 09  01 24 07.788   +26 42 23.92  .05053 1.0347 115.3 19.1 9.35 131
2026 08 19 10  01 23 03.186   +26 54 43.05  .05071 1.0348 115.4 19.1 10.3 131
2026 08 19 11  01 21 58.789   +27 06 55.20  .05088 1.0350 115.6 19.1 11.3 130
2026 08 19 12  01 20 54.597   +27 19 00.41  .05106 1.0352 115.7 19.1 12.4 130
2026 08 19 13  01 19 50.613   +27 30 58.71  .05124 1.0354 115.9 19.1 13.5 130
2026 08 19 14  01 18 46.838   +27 42 50.10  .05142 1.0356 116.0 19.1 14.7 130
2026 08 19 15  01 17 43.274   +27 54 34.64  .05160 1.0358 116.1 19.1 15.8 130
2026 08 19 16  01 16 39.923   +28 06 12.33  .05178 1.0359 116.2 19.1 17.0 130
2026 08 19 17  01 15 36.786   +28 17 43.22  .05197 1.0361 116.4 19.1 18.3 130
2026 08 19 18  01 14 33.864   +28 29 07.33  .05216 1.0363 116.5 19.1 19.6 130
2026 08 19 19  01 13 31.160   +28 40 24.70  .05234 1.0365 116.6 19.1 20.9 130
2026 08 19 20  01 12 28.674   +28 51 35.36  .05253 1.0367 116.7 19.1 22.2 129
2026 08 19 21  01 11 26.408   +29 02 39.35  .05272 1.0368 116.9 19.1 23.6 129
2026 08 19 22  01 10 24.363   +29 13 36.70  .05291 1.0370 117.0 19.1 25.0 129
2026 08 19 23  01 09 22.540   +29 24 27.45  .05311 1.0372 117.1 19.1 26.5 129
2026 08 20 00  01 08 20.942   +29 35 11.63  .05330 1.0374 117.2 19.1 27.9 129
2026 08 20 01  01 07 19.568   +29 45 49.29  .05349 1.0376 117.3 19.2 29.4 129
2026 08 20 02  01 06 18.421   +29 56 20.46  .05369 1.0378 117.5 19.2 30.9 129
2026 08 20 03  01 05 17.500   +30 06 45.18  .05389 1.0379 117.6 19.2 32.5 129
2026 08 20 04  01 04 16.809   +30 17 03.50  .05409 1.0381 117.7 19.2 34.1 128
2026 08 20 05  01 03 16.346   +30 27 15.46  .05429 1.0383 117.8 19.2 35.6 128
2026 08 20 06  01 02 16.114   +30 37 21.09  .05449 1.0385 117.9 19.2 37.3 128
2026 08 20 07  01 01 16.113   +30 47 20.44  .05469 1.0387 118.0 19.2 38.9 128
2026 08 20 08  01 00 16.344   +30 57 13.57  .05490 1.0389 118.1 19.2 40.6 128
2026 08 20 09  00 59 16.808   +31 07 00.49  .05510 1.0390 118.2 19.2 42.2 128
2026 08 20 10  00 58 17.506   +31 16 41.28  .05531 1.0392 118.3 19.2 43.9 128
2026 08 20 11  00 57 18.439   +31 26 15.96  .05552 1.0394 118.4 19.2 45.6 128
2026 08 20 12  00 56 19.607   +31 35 44.58  .05573 1.0396 118.5 19.2 47.4 127
2026 08 20 13  00 55 21.011   +31 45 07.20  .05594 1.0398 118.6 19.2 49.1 127
2026 08 20 14  00 54 22.652   +31 54 23.85  .05615 1.0400 118.7 19.2 50.9 127
2026 08 20 15  00 53 24.530   +32 03 34.58  .05636 1.0401 118.8 19.2 52.7 127
2026 08 20 16  00 52 26.647   +32 12 39.45  .05657 1.0403 118.9 19.2 54.5 127
2026 08 20 17  00 51 29.001   +32 21 38.48  .05679 1.0405 119.0 19.2 56.3 127
2026 08 20 18  00 50 31.595   +32 30 31.75  .05700 1.0407 119.1 19.2 58.1 127
2026 08 20 19  00 49 34.428   +32 39 19.28  .05722 1.0409 119.2 19.2 60.0 127
2026 08 20 20  00 48 37.502   +32 48 01.14  .05744 1.0411 119.3 19.3 61.8 126
2026 08 20 21  00 47 40.815   +32 56 37.36  .05766 1.0413 119.4 19.3 63.7 126
2026 08 20 22  00 46 44.369   +33 05 08.00  .05788 1.0414 119.5 19.3 65.5 126
2026 08 20 23  00 45 48.165   +33 13 33.10  .05810 1.0416 119.6 19.3 67.4 126
2026 08 21 00  00 44 52.201   +33 21 52.72  .05832 1.0418 119.7 19.3 69.3 126
2026 08 21 01  00 43 56.480   +33 30 06.90  .05854 1.0420 119.7 19.3 71.2 126
2026 08 21 02  00 43 01.000   +33 38 15.68  .05877 1.0422 119.8 19.3 73.1 126
2026 08 21 03  00 42 05.762   +33 46 19.13  .05899 1.0424 119.9 19.3 75.0 125
2026 08 21 04  00 41 10.766   +33 54 17.28  .05922 1.0425 120.0 19.3 77.0 125
2026 08 21 05  00 40 16.012   +34 02 10.19  .05944 1.0427 120.1 19.3 78.9 125